Location: Aix-en-Ergny
(50.5839°N, 1.9996°E)
Time: 12:41:35
(UTC+00:00)

Cosmos 2333 Rocket - Visible Passes

Search period start: 21 January 2020 00:00
Search period end: 31 January 2020 00:00
Orbit: 837 x 864 km, 70.8° (Epoch: 20 January)

Date Brightness Start Highest point End Pass type
(mag) Time Alt. Az. Time Alt. Az. Time Alt. Az.
21 Jan 3.8 17:46:07 10° NW 17:51:25 39° WSW 17:56:38 10° S visible
22 Jan 4.3 07:00:04 10° SSE 07:05:09 33° ESE 07:10:16 10° NE visible
22 Jan 3.8 17:33:49 10° NW 17:39:06 39° WSW 17:44:21 10° S visible
23 Jan 4.3 06:47:45 10° SSE 06:52:51 33° ESE 06:57:58 10° NE visible
23 Jan 3.8 17:21:31 10° NW 17:26:49 40° WSW 17:32:02 10° S visible
24 Jan 4.3 06:35:28 10° SSE 06:40:33 33° ESE 06:45:40 10° NE visible
24 Jan 3.9 17:09:13 10° NW 17:14:31 40° WSW 17:19:44 10° S visible
25 Jan 4.2 06:23:10 10° SSE 06:28:15 33° ESE 06:33:21 10° NE visible
26 Jan 4.2 06:10:52 10° SSE 06:15:57 33° ESE 06:21:04 10° NE visible
27 Jan 4.1 05:58:34 10° SSE 06:03:39 33° ESE 06:08:45 10° NE visible
28 Jan 4.1 05:46:16 10° SSE 05:51:21 33° ESE 05:56:27 10° NE visible
29 Jan 4.0 05:33:59 10° SSE 05:39:03 33° ESE 05:44:08 10° NE visible
30 Jan 4.0 05:21:40 10° SSE 05:26:45 33° ESE 05:31:51 10° NE visible
